Flag for Germany Weather past 2 weeks in Coburg, Bavaria, Germany

Now
55 °F

Passing clouds.


Feels Like: 55 °F
Forecast: 51 / 76 °F
Wind: 1 mph from Northeast

Location: Bamberg

Current Time: Jul 24, 2014 at 6:05:32 AM

Latest Report: Jul 24, 2014 at 5:00 AM


Visibility: 9 mi

Pressure: 29.94 "Hg

Humidity: 97%

Dew point: 54 °F

Location of CoburgLocation

Historic Weather in Coburg — Graph

°F

Coburg temperature yesterday

Maximum temperature yesterday: 84 °F (at 5:00 PM)
Minimum temperature yesterday: 59 °F (at 5:00 AM)
Average temperature yesterday: 71 °F

Past Weeks' High & Low Weather Summary

 TemperatureHumidityPressure
High90 °F (Jul 19, 4:00 PM)100% (Jul 12, 2:00 AM)30.19 "Hg (Jul 12, 2:00 AM)
Low52 °F (Jul 17, 6:00 AM)26% (Jul 20, 4:00 PM)29.72 "Hg (Jul 9, 3:00 PM)
Average67 °F78%29.94 "Hg
* Reported Jul 9 3:00 PM — Jul 24 5:00 AM, Coburg, Weather by CustomWeather, © 2014

Note: Actual official high and low records may vary slightly from our data, if they occured in-between our weather recording intervals... More about our weather records

Advertising

Coburg weather history for previous 24 hours

 ConditionsComfort  
Time TempWeatherWind HumidityBarometerVisibility
5:00 AM
Jul 24
55 °FPassing clouds.1 mph97%29.94 "Hg9 mi
4:00 AM58 °FClear.2 mph85%29.94 "Hg15 mi
3:00 AM60 °FClear.2 mph83%29.95 "Hg14 mi
2:00 AM57 °FClear.1 mph94%29.96 "Hg10 mi
1:00 AM58 °FPassing clouds.1 mph95%29.97 "Hg7 mi
12:00 AM59 °FPassing clouds.1 mph92%29.97 "Hg13 mi
11:00 PM
Jul 23
61 °FClear.1 mph87%29.97 "Hg16 mi
10:00 PM65 °FClear.1 mph75%29.96 "Hg19 mi
9:00 PM76 °FSunny.3 mph42%29.93 "Hg25 mi
8:00 PM80 °FSunny.3 mph35%29.92 "Hg22 mi
7:00 PM81 °FSunny.6 mph34%29.92 "Hg19 mi
6:00 PM82 °FOvercast.5 mph36%29.92 "Hg22 mi
5:00 PM84 °FPassing clouds.5 mph35%29.92 "Hg22 mi
4:00 PM82 °FPartly sunny.6 mph38%29.94 "Hg19 mi
3:00 PM79 °FOvercast.6 mph41%29.96 "Hg22 mi
6:00 AM61 °FSunny.2 mph90%30.02 "Hg15 mi
Weather by CustomWeather, © 2014

See weather overviewHow to use our weather pages